Theta_e
347 343 346 341 343 340 341 342 343 345 347 344 343 342 340 341 340 338 339 343 341 341 342 343 344 343 343 346 348 348 349 348 346 345 342 339 338 340 341 339 338 338 337
351 345 346 343 342 341 340 341 342 342 344 345 343 343 342 342 342 342 339 342 343 342 342 342 343 343 343 344 346 347 348 349 346 345 344 343 342 343 341 341 340 340 337
354 352 346 344 344 344 349 346 348 344 342 344 344 343 342 342 342 344 342 340 341 343 343 342 342 342 343 344 345 345 347 348 347 344 343 342 343 343 342 343 342 341 339
357 355 345 345 346 344 341 339 338 338 342 339 341 348 345 343 342 341 339 339 342 338 342 343 342 342 343 344 345 344 345 345 347 345 342 343 343 344 342 341 342 341 341
354 353 347 346 352 343 341 340 339 340 337 338 338 345 348 345 342 337 340 340 341 342 338 342 342 343 343 344 345 344 344 345 346 347 345 343 343 343 341 341 341 341 340
352 353 348 351 349 342 340 340 342 339 337 337 340 343 341 342 340 339 339 345 340 342 341 339 340 338 342 344 345 345 343 343 345 346 345 343 343 342 340 340 341 342 341
352 353 347 350 349 343 345 348 340 341 335 343 342 333 337 340 341 338 347 344 341 339 341 337 340 344 338 343 345 345 343 343 343 345 343 341 342 342 340 340 341 341 337
353 351 352 350 350 344 348 346 344 334 338 343 336 330 325 329 334 337 344 341 338 337 336 335 338 341 345 338 340 343 343 343 343 345 344 341 341 342 339 341 341 337 334
351 350 350 351 349 348 340 345 343 344 342 340 339 332 322 324 332 336 335 337 339 341 335 341 338 341 345 343 341 340 343 343 343 344 343 341 341 340 341 340 336 335 334
347 347 348 348 348 345 346 343 344 345 345 334 336 335 335 331 324 323 335 335 337 337 340 336 338 341 342 337 343 340 340 342 343 345 343 343 342 341 341 338 335 334 333
346 347 348 348 348 345 351 350 347 345 339 338 333 330 332 328 331 327 323 329 332 334 335 338 342 343 343 339 340 337 338 338 336 341 342 343 342 342 340 337 334 334 333
347 347 348 349 351 350 349 345 345 343 346 341 334 336 328 325 327 328 327 329 330 333 333 339 341 341 342 341 344 336 335 335 333 335 337 338 341 341 339 338 337 337 335
345 346 351 349 347 349 347 345 344 343 341 337 337 331 331 333 335 334 332 329 328 329 333 332 342 340 342 341 341 337 336 332 330 330 331 333 335 336 336 336 336 334 334
347 353 351 348 345 344 344 344 342 340 343 336 337 336 337 335 332 334 332 331 326 326 331 332 336 337 341 346 341 335 337 329 327 327 327 328 330 331 332 332 331 331 332
347 348 347 345 344 343 343 343 339 338 339 341 337 337 337 334 334 331 334 330 333 320 323 333 332 337 342 343 336 340 337 327 327 325 324 324 325 326 327 328 328 328 328
345 344 342 343 342 342 341 342 340 342 339 341 339 332 336 338 338 336 334 331 332 328 324 336 336 331 338 342 335 343 339 329 324 323 324 323 322 323 323 323 324 325 326
343 341 341 341 338 337 339 342 339 337 335 337 335 330 332 335 336 337 333 330 337 329 325 333 338 340 337 339 339 340 336 337 330 323 323 321 319 319 319 319 320 322 322
341 338 337 335 334 335 339 337 335 335 334 333 328 327 329 333 335 337 340 335 338 337 335 328 332 333 335 335 336 336 335 336 330 322 320 318 317 315 315 315 316 317 317
337 336 335 334 335 336 336 336 333 333 333 334 329 324 328 331 333 335 337 337 333 337 337 331 327 328 328 327 324 324 324 325 324 321 317 316 315 314 314 314 313 313 313
335 335 336 335 333 332 332 334 334 335 334 331 326 323 324 329 331 332 335 337 337 336 329 331 323 322 323 323 323 320 318 321 319 321 320 317 316 315 314 313 315 314 311
336 336 336 335 335 335 331 335 333 333 332 325 324 324 327 327 324 326 335 336 336 334 332 324 320 319 318 319 318 319 315 316 317 319 317 318 319 319 318 318 319 316 311
336 336 336 335 335 330 307 312 322 331 329 326 322 325 327 323 322 316 317 318 332 335 329 323 319 317 319 318 318 317 314 313 309 319 317 316 321 319 320 322 315 310 308
338 336 334 335 333 331 305 307 313 333 330 326 325 326 327 330 325 329 315 314 315 314 322 327 322 320 317 321 321 318 319 317 313 317 317 315 321 320 322 317 308 307 306
338 338 335 335 332 325 306 307 311 332 329 325 325 325 327 330 330 329 332 332 330 330 331 329 328 324 324 325 325 324 323 317 318 318 320 314 319 320 323 322 306 306 304
338 337 335 334 331 328 305 307 318 327 325 323 323 324 324 329 309 308 330 327 327 324 310 311 310 306 305 308 319 322 318 316 313 315 322 316 316 319 320 320 317 305 304
336 335 334 334 321 328 303 307 318 328 323 321 322 319 309 321 302 307 328 327 324 322 320 317 316 310 312 311 311 329 323 317 315 314 323 318 317 320 316 321 320 314 311
Wind_Speed
11 12 10 11 11 12 12 12 11 11 12 12 10 10 10 9 8 5 2 15 14 12 11 12 12 12 13 12 10 10 10 13 20 21 22 22 19 16 16 16 14 13 13
10 12 11 11 10 11 11 12 11 10 9 9 11 11 8 10 9 8 7 8 14 14 13 12 12 13 14 12 11 10 11 12 17 19 20 20 17 17 17 16 17 18 18
13 12 11 11 11 10 10 8 9 9 9 8 9 7 6 9 7 6 4 6 9 13 14 14 13 12 13 12 12 12 11 12 14 18 18 17 16 17 18 16 18 17 18
15 12 11 11 10 9 9 10 10 9 7 10 9 4 3 7 8 10 7 8 6 7 11 15 15 14 13 12 12 13 11 11 13 17 18 17 18 17 15 10 14 14 14
15 13 11 10 10 10 10 10 9 8 9 9 9 3 6 6 11 8 13 7 6 6 7 13 15 14 13 13 14 14 12 12 12 14 17 16 17 17 16 14 12 13 13
15 13 12 11 10 10 10 10 10 9 10 9 6 5 6 8 9 9 5 4 8 9 8 7 8 11 15 14 14 14 14 13 12 12 12 17 17 16 12 12 13 14 16
15 13 12 11 10 11 11 9 8 10 10 6 3 8 8 10 8 9 5 7 9 10 9 6 7 2 8 13 12 13 13 13 13 12 10 15 14 17 18 14 13 17 27
13 12 12 11 10 10 9 10 11 10 8 4 7 6 7 6 9 4 4 6 9 10 8 7 14 9 7 9 12 11 11 13 14 12 11 16 18 16 16 14 20 27 27
11 12 13 9 11 9 10 10 11 12 6 6 6 5 5 1 1 3 7 6 8 7 8 2 7 9 10 6 13 12 11 10 13 13 14 20 18 17 16 24 25 25 25
10 10 10 9 9 10 10 10 9 7 7 7 3 6 9 6 1 2 3 7 7 7 8 5 9 6 8 5 6 14 13 12 13 15 17 21 20 19 23 25 23 22 21
10 14 12 10 11 10 9 10 9 7 5 4 6 6 5 6 6 5 4 4 7 5 4 5 4 4 7 7 8 13 13 14 10 11 17 20 21 22 25 25 24 21 21
9 10 12 9 10 9 9 8 6 8 6 7 7 3 4 4 3 6 5 5 5 4 2 3 3 5 5 5 7 14 11 12 13 12 18 20 21 23 24 26 24 23 22
10 10 11 9 9 8 8 7 7 6 7 8 5 4 5 3 6 4 4 4 3 4 4 2 4 5 5 7 8 14 12 10 11 14 16 16 20 22 22 22 21 22 21
11 12 10 10 9 10 6 7 6 7 8 6 6 4 2 6 4 5 6 4 4 3 5 6 4 4 5 6 10 14 10 11 12 15 16 16 18 20 17 18 18 18 18
9 12 11 10 9 7 8 7 8 8 6 5 6 4 4 6 7 5 6 6 4 4 4 5 4 5 4 7 8 10 11 11 13 15 17 17 17 17 16 16 14 14 15
11 11 10 9 7 8 10 8 7 6 6 6 5 5 5 5 6 5 3 4 4 3 4 5 4 5 5 6 6 8 10 12 13 15 18 18 17 15 13 12 14 14 14
11 11 10 9 8 7 8 7 3 5 9 8 7 4 5 5 4 5 4 4 3 3 5 4 7 9 8 8 9 8 11 11 8 16 19 18 15 14 14 14 15 14 14
9 8 8 9 9 9 5 6 5 7 6 8 6 2 3 5 7 7 4 6 5 5 6 11 8 4 8 8 7 9 5 9 8 14 19 17 16 14 15 15 14 13 12
9 9 10 9 5 4 6 5 4 3 4 9 9 5 5 4 4 5 6 5 6 5 6 9 6 4 5 6 8 9 7 10 7 18 18 17 17 16 15 14 12 12 11
10 8 5 4 4 3 2 3 3 4 5 8 7 6 6 5 3 3 6 7 6 7 8 8 7 5 4 5 5 8 8 7 8 8 11 11 13 14 13 13 11 10 10
7 6 5 3 7 3 5 5 2 4 5 6 7 6 5 4 5 1 5 7 8 8 8 9 5 5 5 5 7 6 9 9 8 8 9 8 8 6 6 8 9 10 9
5 5 4 10 5 7 8 7 5 4 7 7 7 8 5 5 4 1 6 3 7 10 11 10 5 8 5 7 8 10 11 11 5 4 9 6 5 4 6 7 10 10 8
6 5 5 9 7 8 6 6 7 3 8 6 5 4 4 4 6 6 6 5 9 9 11 11 13 10 10 11 10 11 12 9 6 5 11 8 6 5 6 5 7 9 8
8 6 6 8 7 7 5 6 9 7 8 6 5 5 3 8 6 6 11 10 10 10 10 8 10 11 11 11 11 11 12 11 10 8 6 5 4 6 7 7 6 7 6
7 7 7 9 8 8 4 5 1 7 7 6 5 5 4 5 5 4 6 11 10 9 11 14 13 13 12 12 11 11 11 12 9 6 5 7 5 7 7 7 6 8 6
8 6 8 8 7 9 5 4 2 5 8 5 6 6 6 5 7 5 9 10 11 10 11 11 12 11 9 7 10 8 12 11 9 6 7 6 7 7 5 6 7 7 7
Wind_Direction
215 207 217 220 195 208 196 222 220 208 215 225 230 225 239 249 255 276 295 159 172 187 220 234 234 240 237 235 223 197 172 170 165 163 167 179 190 190 179 178 176 200 219
213 217 208 211 226 206 218 202 217 227 223 232 223 230 239 241 238 243 251 164 177 185 202 222 231 235 230 234 220 201 176 180 173 171 171 179 191 192 186 190 195 198 211
212 211 213 215 217 225 223 211 221 214 236 223 241 223 205 239 259 260 239 240 186 193 203 212 219 225 224 227 216 201 181 181 189 177 181 182 182 188 192 194 193 204 209
214 210 220 211 218 219 213 221 214 222 210 235 238 213 259 253 251 236 245 239 173 188 209 213 212 215 222 225 215 197 190 182 185 185 191 187 189 187 186 192 229 222 213
198 225 212 221 207 218 212 209 222 211 223 234 235 205 235 234 252 235 235 227 261 247 189 209 206 207 213 217 219 200 194 186 180 186 200 189 192 187 185 188 207 219 177
201 195 213 218 202 216 213 208 206 212 235 240 233 221 221 219 245 265 279 298 245 259 263 168 190 208 204 208 211 198 192 187 180 185 190 189 191 175 167 211 208 164 140
199 188 216 195 208 210 216 188 201 222 228 228 217 249 216 203 224 234 193 237 243 239 208 231 211 96 178 188 186 191 190 187 182 185 169 163 159 155 160 187 148 138 131
195 188 212 191 188 207 197 191 207 214 220 208 228 270 276 225 209 245 230 229 226 238 219 149 247 164 185 182 177 181 179 187 178 174 171 155 154 154 158 153 135 139 141
190 186 211 189 174 217 188 200 203 224 193 200 219 267 272 62 280 215 216 228 234 248 242 267 284 177 187 213 160 169 172 175 171 164 160 152 159 157 150 138 142 148 149
168 169 208 200 177 206 176 191 198 205 229 208 196 238 263 297 241 264 213 200 215 221 241 135 227 204 158 184 175 151 152 152 159 157 159 162 159 160 150 145 155 150 147
168 185 189 199 183 212 156 180 186 196 178 227 230 244 202 237 228 256 256 211 218 200 246 239 190 198 208 174 136 134 145 141 144 148 153 157 153 153 151 151 152 150 155
179 183 184 177 178 206 165 189 171 191 215 236 256 321 220 225 232 214 239 211 209 150 274 242 177 191 217 147 132 132 139 145 159 142 150 155 155 155 157 154 149 154 153
173 176 171 173 178 207 150 184 185 200 212 228 222 234 261 252 230 225 232 214 163 160 181 209 184 186 214 143 138 145 141 136 142 139 142 146 145 148 149 149 154 156 156
167 164 174 174 178 187 166 186 194 208 205 203 210 238 283 261 234 190 214 199 166 158 175 145 170 180 223 121 134 142 148 134 141 138 141 141 149 146 149 147 154 160 159
137 164 174 176 193 167 187 183 219 202 175 180 199 212 227 267 274 198 174 183 202 154 174 175 141 161 187 139 153 156 148 135 137 149 141 139 139 139 145 161 162 143 139
147 162 171 176 171 190 202 193 201 172 185 183 209 191 227 230 271 275 155 203 150 251 141 160 131 139 166 126 148 139 133 138 137 140 140 140 137 144 149 137 133 129 133
149 166 171 177 187 189 193 189 213 207 212 188 175 198 246 218 225 250 178 200 118 173 152 128 135 141 138 131 106 123 153 137 139 146 134 133 127 125 123 120 122 129 130
163 159 166 179 186 192 135 194 212 233 204 174 155 168 208 195 210 229 256 128 183 155 171 139 136 113 117 99 95 92 91 114 129 131 124 125 119 121 120 121 121 126 121
158 161 175 179 163 159 160 221 270 195 176 166 169 154 263 225 188 204 227 173 173 164 150 134 124 84 73 91 88 77 73 88 95 117 109 110 112 114 115 115 112 117 123
164 151 120 200 164 147 106 82 196 212 194 169 145 150 240 259 185 193 211 193 162 141 137 129 112 111 91 99 94 111 94 95 103 101 92 109 112 100 105 106 119 125 133
121 126 187 140 76 79 47 24 16 130 124 130 155 159 213 288 69 221 235 173 169 141 133 124 110 112 124 132 127 115 106 105 96 115 108 109 119 114 114 125 125 148 153
125 168 156 93 90 70 39 20 11 112 127 150 166 176 210 175 137 147 36 339 177 153 143 143 133 142 133 125 131 128 125 125 110 113 110 117 129 141 153 176 142 148 166
143 116 134 99 100 94 39 11 342 200 126 126 122 145 173 190 175 175 130 114 109 114 130 152 154 153 144 148 136 135 140 124 120 134 127 137 191 166 138 119 139 157 165
129 137 125 109 108 90 37 7 343 92 98 111 122 148 176 167 156 178 164 122 109 123 133 152 154 146 142 144 141 134 121 107 114 137 132 134 139 152 174 147 155 165 172
140 146 125 117 116 113 52 17 63 95 98 112 114 132 168 129 114 300 126 106 107 84 64 101 113 115 120 137 136 122 131 136 136 153 206 138 178 166 180 172 171 188 189
153 141 119 111 113 118 76 46 122 120 116 101 92 82 117 122 113 130 126 136 127 123 114 107 107 100 116 102 113 149 154 146 139 146 170 152 181 181 185 188 179 177 198